Showing default

COSMOS 528, 6262

Orbit data source: Space-Track

COSMOS 528, 6262 is a payload satellite owned by OKB-10 (CIS) in LEO that was launched on Wed, 01 Nov 1972 UTC via a KOSMOS 11K65M launch vehicle from the Plesetsk Missile And Space Complex (PKMTR). Payload-class satellites include a variety of spacecraft equipped with specific instruments for various scientific and technological missions. These include communications satellites like Starlink; space stations such as the ISS; scientific satellites like the Hubble; Earth observation satellites from companies like Planet Labs, Umbra, and HawkEye 360; GPS; miniature CubeSats for education and research; and military/defense satellites.

Loading next visibility...
Identifier
6262, 1972-087A
Orbit
LEO
Country
Flag of CISCIS
Related business
Manufacturer
OKB-10
Mission
Spacecraft
Bus & Motor
STRELA-1 11F625, Unknown motor
Mass
60 kg wet, 60 kg dry
Launch date (UTC)
1972-11-01 (54 years ago)
Launch vehicle
KOSMOS 11K65M
Launch site
Plesetsk Missile And Space Complex (PKMTR)
Object type
Payload
Rocket body
Debris
Shape & HBR
Unknown
Radar Cross Section
Medium (>0.1 m² and <1 m²)

Expand to show TLE details & history
Last TLE update: 2 days ago

TLE from 2 days ago
0 COSMOS 528
1  6262U 72087A   26171.34542382 -.00000002  00000-0  79657-4 0  9999
2  6262  74.0335 136.6526 0065815 243.9120 283.3555 12.61616610470186
Epoch: 2026-06-20T08:17Z
TLE epoch observation values (Epoch: 2026-06-20T08:17:24.618Z)
Latitude
12.91018°
Longitude
-80.00301°
Altitude
1,406.402 km
Speed
7.163 km/s
True Right ascension
20h 51m 38s
True Declination
12° 50' 30"
Sunlit
Object was in daylight at epoch
Visualization orbit readout
Latitude
Unknown
Longitude
Unknown
Altitude
Unknown
Speed
Unknown
Apparent Right ascension
Unknown
Apparent Declination
Unknown
Sunlit
N/A
Visualization observer readout
Local Sidereal Time
23:07:59
Azimuth
Unknown
Elevation
Unknown
Doppler factor
Unknown
Orbital elements
Apogee altitude
1,465.385 km
Perigee altitude
1,362.816 km
Semi-major axis
7,792.237 km
Eccentricity
0.00658
Inclination
74.0335°
RAAN
136.6526°
Arg. of periapsis
243.912°
True anomaly
282.62034°
Mean anomaly
283.3555°
Eccentric anomaly
282.98805°
Mean motion
3.15537 °/min
Orbital period
114.09 mins
BSTAR
0.000079657
Loading maneuver chart data...
Computing Atmospheric mass density...
Loading historical data...
Loading historical data...
Loading historical data...
Loading historical data...
Loading historical data...
Loading historical data...
Loading historical data...

Documentation

Showing up to 5 results
|